Tracking 28920 objects as of 25-May-2024
HD Live streaming from Space Station
objects crossing your sky now

GLOBALSTAR M040

Track GLOBALSTAR M040 now!
10-day predictions
GLOBALSTAR M040 is classified as:


NORAD ID: 25622
Int'l Code: 1999-004B
Perigee: 1,421.4 km
Apogee: 1,422.5 km
Inclination: 52.0 °
Period: 114.1 minutes
Semi major axis: 7792 km
RCS: 2.1681 m2 (large)
Launch date: February 9, 1999
Source: Globalstar (GLOB)
Launch site: TYURATAM MISSILE AND SPACE COMPLEX (TTMTR)
Your satellite tracking list
Your tracking list is empty




NASA's NSSDC Master Catalog

Two Line Element Set (TLE):
1 25622U 99004B   24145.79493988 -.00000063  00000-0  22686-3 0  9999
2 25622  51.9890 159.6459 0000680 266.9267 264.0470 12.61975145166212
Source of the keplerian elements: AFSPC